TimeEST,TemperatureF,Dew PointF,Humidity,Sea Level PressureIn,VisibilityMPH,Wind Direction,Wind SpeedMPH,Gust SpeedMPH,PrecipitationIn,Events,Conditions,WindDirDegrees,DateUTC
12:53 AM,37.9,35.1,89,30.17,10.0,Calm,Calm,-,N/A,,Overcast,0,2012-11-20 05:53:00
1:53 AM,37.9,35.1,89,30.15,10.0,Calm,Calm,-,N/A,,Overcast,0,2012-11-20 06:53:00
2:53 AM,37.9,35.1,89,30.15,10.0,East,3.5,-,N/A,,Overcast,90,2012-11-20 07:53:00
3:53 AM,37.9,35.1,89,30.14,10.0,Calm,Calm,-,N/A,,Overcast,0,2012-11-20 08:53:00
4:53 AM,36.0,34.0,93,30.14,10.0,Calm,Calm,-,N/A,,Scattered Clouds,0,2012-11-20 09:53:00
5:53 AM,36.0,34.0,93,30.14,10.0,Calm,Calm,-,N/A,,Mostly Cloudy,0,2012-11-20 10:53:00
6:53 AM,37.9,34.0,86,30.12,10.0,Calm,Calm,-,N/A,,Overcast,0,2012-11-20 11:53:00
7:53 AM,39.9,35.1,83,30.14,7.0,Calm,Calm,-,N/A,,Overcast,0,2012-11-20 12:53:00
8:53 AM,42.1,36.0,79,30.14,7.0,Calm,Calm,-,N/A,,Overcast,0,2012-11-20 13:53:00
9:53 AM,42.1,36.0,79,30.14,7.0,Calm,Calm,-,N/A,,Overcast,0,2012-11-20 14:53:00
10:53 AM,42.1,37.0,82,30.15,6.0,SW,3.5,-,0.00,,Haze,220,2012-11-20 15:53:00
11:53 AM,46.9,37.0,68,30.12,7.0,South,3.5,-,N/A,,Overcast,190,2012-11-20 16:53:00
12:53 PM,48.9,39.0,69,30.10,8.0,Calm,Calm,-,N/A,,Overcast,0,2012-11-20 17:53:00
1:53 PM,48.9,39.0,69,30.11,8.0,Calm,Calm,-,N/A,,Overcast,0,2012-11-20 18:53:00
2:53 PM,48.9,39.0,69,30.11,7.0,WNW,3.5,-,N/A,,Overcast,290,2012-11-20 19:53:00
3:28 PM,48.2,39.2,71,30.09,7.0,WNW,3.5,-,N/A,,Overcast,300,2012-11-20 20:28:00
3:53 PM,48.9,39.9,71,30.12,7.0,Calm,Calm,-,N/A,,Overcast,0,2012-11-20 20:53:00
4:53 PM,46.9,39.9,77,30.12,7.0,SW,3.5,-,N/A,,Overcast,230,2012-11-20 21:53:00
5:53 PM,45.0,39.0,80,30.14,7.0,Calm,Calm,-,N/A,,Overcast,0,2012-11-20 22:53:00
6:53 PM,45.0,39.9,82,30.15,6.0,Calm,Calm,-,N/A,,Haze,0,2012-11-20 23:53:00
7:21 PM,44.6,39.2,81,30.12,6.0,WSW,3.5,-,N/A,,Haze,240,2012-11-21 00:21:00
7:53 PM,42.1,39.0,89,30.16,5.0,Calm,Calm,-,N/A,,Overcast,0,2012-11-21 00:53:00
8:53 PM,39.9,37.9,93,30.17,4.0,Calm,Calm,-,N/A,,Overcast,0,2012-11-21 01:53:00
9:14 PM,39.2,37.4,93,30.14,4.0,Calm,Calm,-,N/A,,Overcast,0,2012-11-21 02:14:00
9:46 PM,41.0,37.4,87,30.14,4.0,Calm,Calm,-,N/A,,Overcast,0,2012-11-21 02:46:00
9:53 PM,42.1,39.0,89,30.17,4.0,Calm,Calm,-,N/A,,Overcast,0,2012-11-21 02:53:00
10:14 PM,42.8,39.2,87,30.15,5.0,Calm,Calm,-,N/A,,Overcast,0,2012-11-21 03:14:00
10:53 PM,42.1,39.0,89,30.17,4.0,South,4.6,-,N/A,,Overcast,180,2012-11-21 03:53:00
11:53 PM,43.0,39.9,89,30.18,4.0,West,3.5,-,N/A,,Overcast,260,2012-11-21 04:53:00